When you browse on this site, cookies collect data to enhance your experience and personalize the content and advertising you see.
Visit our Privacy Policy to learn more. By continuing to use the site, you agree to this use of cookies and data.
EN

Hourly Weather Cobija

Today, 22 September, Tuesday

Time Temperature Precipitation Wind Pressure Humidity
00:00 +24°C° 0.1 mm 1 mps 739 mmHg 90%
01:00 +24°C° 0 mm 1 mps 739 mmHg 91%
02:00 +23°C° 0.1 mm 1 mps 739 mmHg 87%
03:00 +22°C° 0.1 mm 1 mps 739 mmHg 84%
04:00 +22°C° 0.1 mm 1 mps 739 mmHg 80%
05:00 +22°C° 0 mm 1 mps 739 mmHg 71%
06:00 +23°C° 0 mm 2 mps 740 mmHg 62%
07:00 +23°C° 0 mm 2 mps 741 mmHg 53%
08:00 +25°C° 0.4 mm 2 mps 741 mmHg 50%
09:00 +27°C° 0.4 mm 2 mps 741 mmHg 46%
10:00 +28°C° 0.4 mm 2 mps 742 mmHg 43%
11:00 +30°C° 0.1 mm 2 mps 741 mmHg 40%
12:00 +31°C° 0.1 mm 2 mps 740 mmHg 37%
13:00 +34°C° 0.1 mm 2 mps 739 mmHg 34%
14:00 +33°C° 0 mm 1 mps 738 mmHg 34%
15:00 +33°C° 0 mm 1 mps 737 mmHg 33%
16:00 +34°C° 0 mm 1 mps 737 mmHg 32%
17:00 +31°C° 0 mm 1 mps 737 mmHg 38%
18:00 +29°C° 0 mm 1 mps 738 mmHg 44%
19:00 +27°C° 0 mm 1 mps 738 mmHg 50%
20:00 +26°C° 0 mm 1 mps 738 mmHg 51%
21:00 +26°C° 0 mm 1 mps 739 mmHg 53%
22:00 +25°C° 0 mm 1 mps 739 mmHg 54%
23:00 +25°C° 0 mm 1 mps 739 mmHg 56%

Tomorrow, 23 September, Wednesday

Time Temperature Precipitation Wind Pressure Humidity
00:00 +24°C° 0 mm 1 mps 739 mmHg 57%
01:00 +24°C° 0 mm 1 mps 739 mmHg 59%
02:00 +23°C° 0 mm 1 mps 738 mmHg 59%
03:00 +23°C° 0 mm 1 mps 738 mmHg 59%
04:00 +23°C° 0 mm 1 mps 738 mmHg 60%
05:00 +24°C° 0 mm 1 mps 739 mmHg 57%
06:00 +25°C° 0 mm 1 mps 740 mmHg 55%
07:00 +26°C° 0 mm 1 mps 740 mmHg 52%
08:00 +29°C° 0 mm 1 mps 741 mmHg 46%
09:00 +32°C° 0 mm 1 mps 741 mmHg 40%
10:00 +36°C° 0 mm 2 mps 741 mmHg 34%
11:00 +37°C° 0 mm 2 mps 740 mmHg 31%
12:00 +39°C° 0 mm 1 mps 739 mmHg 29%
13:00 +40°C° 0 mm 1 mps 738 mmHg 26%
14:00 +39°C° 0 mm 1 mps 738 mmHg 29%
15:00 +37°C° 0 mm 1 mps 737 mmHg 31%
16:00 +36°C° 0 mm 1 mps 736 mmHg 34%
17:00 +34°C° 0 mm 1 mps 737 mmHg 39%
18:00 +30°C° 0 mm 0 mps 737 mmHg 44%
19:00 +28°C° 0 mm 0 mps 737 mmHg 49%
20:00 +27°C° 0 mm 0 mps 738 mmHg 51%
21:00 +27°C° 0 mm 0 mps 738 mmHg 53%
22:00 +26°C° 0 mm 0 mps 738 mmHg 55%
23:00 +25°C° 0 mm 0 mps 738 mmHg 57%

Day after tomorrow, 24 September, Thursday

Time Temperature Precipitation Wind Pressure Humidity
00:00 +25°C° 0 mm 0 mps 738 mmHg 59%
01:00 +24°C° 0 mm 0 mps 738 mmHg 61%
02:00 +24°C° 0 mm 0 mps 738 mmHg 62%
03:00 +24°C° 0 mm 0 mps 737 mmHg 63%
04:00 +24°C° 0 mm 0 mps 737 mmHg 64%
05:00 +25°C° 0 mm 0 mps 738 mmHg 60%
06:00 +26°C° 0 mm 0 mps 739 mmHg 57%
07:00 +28°C° 0 mm 0 mps 740 mmHg 53%
08:00 +30°C° 0.1 mm 0 mps 740 mmHg 47%
09:00 +33°C° 0.1 mm 0 mps 740 mmHg 41%
10:00 +39°C° 0.1 mm 1 mps 740 mmHg 35%
11:00 +37°C° 0 mm 0 mps 739 mmHg 33%
12:00 +38°C° 0 mm 0 mps 738 mmHg 30%
13:00 +39°C° 0 mm 0 mps 737 mmHg 27%
14:00 +38°C° 0 mm 0 mps 736 mmHg 28%
15:00 +37°C° 0 mm 0 mps 736 mmHg 29%
16:00 +39°C° 0 mm 1 mps 735 mmHg 30%
17:00 +34°C° 0 mm 0 mps 735 mmHg 37%
18:00 +31°C° 0 mm 0 mps 735 mmHg 43%
19:00 +29°C° 0 mm 0 mps 736 mmHg 50%
20:00 +30°C° 0.1 mm 1 mps 736 mmHg 55%
21:00 +29°C° 0.1 mm 1 mps 737 mmHg 60%
22:00 +28°C° 0.1 mm 1 mps 738 mmHg 66%
23:00 +27°C° 0 mm 1 mps 737 mmHg 71%

25 September, Friday

Time Temperature Precipitation Wind Pressure Humidity
00:00 +26°C° 0 mm 1 mps 737 mmHg 76%
01:00 +26°C° 0 mm 1 mps 737 mmHg 81%
02:00 +25°C° 0.2 mm 1 mps 737 mmHg 84%
03:00 +25°C° 0.2 mm 1 mps 737 mmHg 88%
04:00 +24°C° 0.2 mm 1 mps 737 mmHg 91%
05:00 +25°C° 0.5 mm 1 mps 738 mmHg 91%
06:00 +25°C° 0.5 mm 1 mps 738 mmHg 90%
07:00 +25°C° 0.5 mm 1 mps 739 mmHg 90%
08:00 +29°C° 0 mm 1 mps 739 mmHg 74%
09:00 +32°C° 0 mm 2 mps 739 mmHg 58%
10:00 +37°C° 0 mm 2 mps 740 mmHg 42%
11:00 +38°C° 0 mm 2 mps 738 mmHg 37%
12:00 +40°C° 0 mm 2 mps 737 mmHg 33%
13:00 +41°C° 0 mm 1 mps 736 mmHg 28%
14:00 +40°C° 0 mm 1 mps 735 mmHg 31%
15:00 +39°C° 0 mm 1 mps 735 mmHg 33%
16:00 +37°C° 0 mm 1 mps 734 mmHg 36%
17:00 +35°C° 0 mm 1 mps 734 mmHg 41%
18:00 +33°C° 0 mm 1 mps 734 mmHg 47%
19:00 +31°C° 0 mm 1 mps 734 mmHg 52%
20:00 +30°C° 0 mm 1 mps 734 mmHg 55%
21:00 +29°C° 0 mm 1 mps 735 mmHg 58%
22:00 +29°C° 0 mm 1 mps 736 mmHg 61%
23:00 +27°C° 0.2 mm 1 mps 735 mmHg 69%

26 September, Saturday

Time Temperature Precipitation Wind Pressure Humidity
00:00 +26°C° 0.2 mm 1 mps 735 mmHg 76%
01:00 +25°C° 0.2 mm 1 mps 735 mmHg 84%
02:00 +25°C° 0.6 mm 1 mps 735 mmHg 88%
03:00 +24°C° 0.6 mm 1 mps 735 mmHg 91%
04:00 +24°C° 0.6 mm 1 mps 735 mmHg 95%
05:00 +25°C° 0 mm 1 mps 736 mmHg 92%
06:00 +25°C° 0 mm 1 mps 736 mmHg 89%
07:00 +26°C° 0 mm 1 mps 737 mmHg 86%
08:00 +30°C° 0 mm 1 mps 737 mmHg 71%
09:00 +34°C° 0 mm 2 mps 737 mmHg 56%
10:00 +37°C° 0 mm 2 mps 738 mmHg 41%
11:00 +39°C° 0 mm 2 mps 737 mmHg 38%
12:00 +40°C° 0 mm 2 mps 735 mmHg 34%
13:00 +41°C° 0 mm 2 mps 734 mmHg 31%
14:00 +40°C° 0 mm 2 mps 734 mmHg 32%
15:00 +39°C° 0 mm 2 mps 733 mmHg 34%
16:00 +37°C° 0 mm 1 mps 732 mmHg 36%
17:00 +35°C° 0 mm 1 mps 732 mmHg 42%
18:00 +33°C° 0 mm 1 mps 732 mmHg 49%
19:00 +31°C° 0 mm 1 mps 733 mmHg 56%
20:00 +29°C° 0.3 mm 1 mps 733 mmHg 66%
21:00 +27°C° 0.3 mm 1 mps 733 mmHg 75%
22:00 +26°C° 0.3 mm 1 mps 734 mmHg 85%
23:00 +26°C° 0.1 mm 1 mps 734 mmHg 86%

27 September, Sunday

Time Temperature Precipitation Wind Pressure Humidity
00:00 +26°C° 0.1 mm 1 mps 734 mmHg 87%
01:00 +25°C° 0.1 mm 1 mps 734 mmHg 88%
02:00 +25°C° 0.2 mm 1 mps 734 mmHg 90%
03:00 +25°C° 0.2 mm 1 mps 734 mmHg 91%
04:00 +25°C° 0.2 mm 1 mps 734 mmHg 93%
05:00 +25°C° 0.2 mm 1 mps 734 mmHg 90%
06:00 +26°C° 0.2 mm 1 mps 735 mmHg 87%
07:00 +27°C° 0.2 mm 1 mps 736 mmHg 85%
08:00 +30°C° 0.1 mm 2 mps 737 mmHg 71%
09:00 +34°C° 0.1 mm 2 mps 737 mmHg 57%
10:00 +37°C° 0.1 mm 2 mps 737 mmHg 43%
11:00 +37°C° 0 mm 2 mps 736 mmHg 42%
12:00 +36°C° 0 mm 1 mps 735 mmHg 41%
13:00 +36°C° 0 mm 1 mps 733 mmHg 41%
14:00 +34°C° 0.2 mm 1 mps 733 mmHg 48%
15:00 +33°C° 0.2 mm 1 mps 732 mmHg 55%
16:00 +31°C° 0.2 mm 1 mps 731 mmHg 62%
17:00 +29°C° 1.1 mm 1 mps 732 mmHg 71%
18:00 +27°C° 1.1 mm 1 mps 733 mmHg 80%
19:00 +26°C° 1.1 mm 1 mps 734 mmHg 90%
20:00 +25°C° 2.7 mm 1 mps 735 mmHg 92%
21:00 +25°C° 2.7 mm 2 mps 735 mmHg 95%
22:00 +24°C° 2.7 mm 2 mps 736 mmHg 97%
23:00 +24°C° 1.4 mm 1 mps 736 mmHg 97%
Show more